Flag for South Africa Weather past 2 weeks in Durban, South Africa

Now
79 °F

Sunny.


Feels Like: 81 °F
Forecast: 64 / 83 °F
Wind: 14 mph from Northeast

Location: King Shaka International Airport

Current Time: Mar 4, 2015 at 11:24:11 AM

Latest Report: Mar 4, 2015 at 11:00 AM


Visibility: 10 mi

Pressure: 30.01 "Hg

Humidity: 61%

Dew point: 64 °F

Location of DurbanLocation

Historic Weather in Durban — Graph

°F

Durban temperature yesterday

Maximum temperature yesterday: 75 °F (at 11:00 AM)
Minimum temperature yesterday: 57 °F (at 6:00 AM)
Average temperature yesterday: 68 °F

Past Weeks' High & Low Weather Summary

 TemperatureHumidityPressure
High82 °F (Feb 19, 11:00 AM)94% (Feb 19, 3:00 AM)30.33 "Hg (Feb 19, 3:00 AM)
Low57 °F (Mar 3, 6:00 AM)53% (Mar 3, 5:00 PM)29.68 "Hg (Feb 21, 2:00 AM)
Average72 °F77%29.99 "Hg
* Reported Feb 17 10:00 AM — Mar 4 10:00 AM, Durban, Weather by CustomWeather, © 2015

Note: Actual official high and low records may vary slightly from our data, if they occured in-between our weather recording intervals... More about our weather records

Advertising

Durban weather history for previous 24 hours

 ConditionsComfort  
Time TempWeatherWind HumidityBarometerVisibility
10:00 AM
Wed, Mar 4
75 °FPassing clouds.10 mph57%30.04 "HgN/A
9:00 AM72 °FPassing clouds.12 mph65%30.04 "HgN/A
8:00 AM66 °FPassing clouds.3 mph78%30.07 "HgN/A
7:00 AM61 °FSunny.1 mph88%30.07 "Hg10 mi
6:00 AM57 °FSunny.2 mph88%30.04 "Hg10 mi
5:00 AM57 °FSunny.1 mph88%30.04 "Hg10 mi
4:00 AM59 °FClear.2 mph88%30.07 "Hg10 mi
3:00 AM61 °FClear.2 mph83%30.07 "Hg10 mi
2:00 AM61 °FPassing clouds.5 mph83%30.09 "HgN/A
1:00 AM61 °FClear.5 mph83%30.12 "Hg10 mi
12:00 AM64 °FClear.3 mph78%30.15 "Hg10 mi
11:00 PM
Tue, Mar 3
64 °FClear.6 mph78%30.15 "Hg10 mi
10:00 PM64 °FClear.5 mph78%30.15 "Hg10 mi
9:00 PM66 °FClear.3 mph73%30.18 "Hg10 mi
8:00 PM66 °FClear.6 mph78%30.18 "Hg10 mi
7:00 PM68 °FClear.7 mph69%30.15 "Hg10 mi
6:00 PM72 °FClear.12 mph61%30.15 "Hg10 mi
5:00 PM73 °FSunny.14 mph53%30.15 "Hg10 mi
4:00 PM75 °FSunny.15 mph54%30.15 "Hg10 mi
3:00 PM75 °FPassing clouds.15 mph54%30.15 "HgN/A
2:00 PM75 °FPassing clouds.17 mph54%30.18 "HgN/A
1:00 PM75 °FPassing clouds.15 mph54%30.21 "HgN/A
12:00 PM75 °FPassing clouds.13 mph54%30.21 "HgN/A
11:00 AM75 °FPassing clouds.12 mph54%30.24 "HgN/A
Weather by CustomWeather, © 2015

See weather overviewHow to use our weather pages